WetterOnline ( https://www.wetteronline.de )

Wetter aktuell Neuenstein

Aktuelles Wetter: Bad Hersfeld (273m)

6-stündlich | Neueste Meldungen
Ortszeit Temperatur Wetter
Sa, 15.08. 2:00 18.0° C leichter Regen
Fr, 14.08. 20:00 22.3° C wolkig
Fr, 14.08. 14:00 20.6° C leichter Regen
Fr, 14.08. 8:00 19.2° C leichter Regen
Fr, 14.08. 2:00 19.4° C bedeckt
Do, 13.08. 20:00 22.6° C bedeckt
Do, 13.08. 14:00 20.2° C bedeckt
Do, 13.08. 8:00 22.1° C bewölkt
Ortszeit Temperatur Wetter
Sa, 15.08. 7:30 17.1° C Nebel
Sa, 15.08. 7:20 17.1° C Nebel
Sa, 15.08. 7:10 17.0° C bedeckt
Sa, 15.08. 7:00 17.0° C Nebel
Sa, 15.08. 6:50 17.0° C Nebel
Sa, 15.08. 6:40 17.0° C Nebel
Sa, 15.08. 6:30 17.1° C Nebel
Sa, 15.08. 6:00 17.1° C bedeckt
Ortszeit Relative Feuchte Sichtweite
Sa, 15.08. 2:00 97% 9 km
Fr, 14.08. 20:00 73% 55 km
Fr, 14.08. 14:00 89% 27 km
Fr, 14.08. 8:00 93% 14 km
Fr, 14.08. 2:00 87% 30 km
Do, 13.08. 20:00 77% 40 km
Do, 13.08. 14:00 92% 15 km
Do, 13.08. 8:00 67% 55 km
Ortszeit Relative Feuchte Sichtweite
Sa, 15.08. 7:30 99% 0.3 km
Sa, 15.08. 7:20 99% -
Sa, 15.08. 7:10 99% -
Sa, 15.08. 7:00 99% 0.2 km
Sa, 15.08. 6:50 99% -
Sa, 15.08. 6:40 99% -
Sa, 15.08. 6:30 99% 0.2 km
Sa, 15.08. 6:00 99% 1.2 km
Ortszeit Niederschlagsmenge Niederschlagsart
Sa, 15.08. 2:00 4 l/m2 in 6 Std. Regen
Fr, 14.08. 20:00 3 l/m2 in 12 Std. Regen
Fr, 14.08. 14:00 3 l/m2 in 6 Std. Regen
Fr, 14.08. 8:00 0.4 l/m2 in 12 Std. Regen
Fr, 14.08. 2:00 0.0 l/m2 in 6 Std. -
Do, 13.08. 20:00 19 l/m2 in 12 Std. Regen
Do, 13.08. 14:00 19 l/m2 in 6 Std. Regenschauer
Do, 13.08. 8:00 0.0 l/m2 in 12 Std. -
Ortszeit Niederschlagsmenge Niederschlagsart
Sa, 15.08. 7:30 0.0 l/m2 in 1 Std. -
Sa, 15.08. 7:20 keine Meldung -
Sa, 15.08. 7:10 keine Meldung -
Sa, 15.08. 7:00 0.1 l/m2 in 1 Std. -
Sa, 15.08. 6:50 keine Meldung -
Sa, 15.08. 6:40 keine Meldung -
Sa, 15.08. 6:30 0.0 l/m2 in 1 Std. -
Sa, 15.08. 6:00 0.0 l/m2 in 1 Std. -
Ortszeit Stärke Spitze Richtung
km/h Bft. km/h Grad Sektor
Sa, 15.08. 2:00 6 1 13 100° O
Fr, 14.08. 20:00 9 2 24 180° S
Fr, 14.08. 14:00 11 2 18 180° S
Fr, 14.08. 8:00 6 1 13 170° S
Fr, 14.08. 2:00 7 2 18 180° S
Do, 13.08. 20:00 4 1 22 150° SO
Do, 13.08. 14:00 6 1 35 210° SW
Do, 13.08. 8:00 6 1 19 360° N
Ortszeit Stärke Spitze Richtung
km/h Bft. km/h Grad Sektor
Sa, 15.08. 7:30 0 0 4 - -
Sa, 15.08. 7:20 2 1 - 40° NO
Sa, 15.08. 7:10 2 1 - 30° NO
Sa, 15.08. 7:00 4 1 7 130° SO
Sa, 15.08. 6:50 4 1 - 130° SO
Sa, 15.08. 6:40 4 1 - - -
Sa, 15.08. 6:30 4 1 7 180° S
Sa, 15.08. 6:00 4 1 7 260° W
Ortszeit Untergrenze Bedeckung Gattung
total tief tief mittel hoch
Sa, 15.08. 2:00 60 m 8/8 3/8 - - -
Fr, 14.08. 20:00 2100 m 8/8 2/8 - - -
Fr, 14.08. 14:00 3000 m 8/8 8/8 - - -
Fr, 14.08. 8:00 1800 m 8/8 5/8 - - -
Fr, 14.08. 2:00 3300 m 8/8 8/8 - - -
Do, 13.08. 20:00 4500 m 8/8 8/8 - - -
Do, 13.08. 14:00 3600 m 8/8 8/8 - - -
Do, 13.08. 8:00 2400 m 8/8 7/8 - - -
Ortszeit Bedeckungsgrad in Achtel und Wolkenuntergrenze
Sa, 15.08. 7:30 8(30m) 8(3000m)
Sa, 15.08. 7:20 8(30m) 8(3000m)
Sa, 15.08. 7:10 8(30m) 8(3000m)
Sa, 15.08. 7:00 8(<30m) 8(3000m)
Sa, 15.08. 6:50 8(<30m)
Sa, 15.08. 6:40 8(<30m)
Sa, 15.08. 6:30 8(<30m)
Sa, 15.08. 6:00 8(<30m)
Ortszeit Luftdruck NN (hPa) Tendenz (hPa in 3 Std.)
Sa, 15.08. 2:00 1015 - 0,2
Fr, 14.08. 20:00 1013 + 0,2
Fr, 14.08. 14:00 1014 + 0,1
Fr, 14.08. 8:00 1014 + 0,2
Fr, 14.08. 2:00 1013 - 0,1
Do, 13.08. 20:00 1013 - 1,1
Do, 13.08. 14:00 1015 + 0,1
Do, 13.08. 8:00 1013 + 0,1
Ortszeit Luftdruck NN (hPa) Tendenz (hPa in 3 Std.)
Sa, 15.08. 7:30 1015 + 0,7
Sa, 15.08. 7:20 1015 keine Meldung
Sa, 15.08. 7:10 1015 keine Meldung
Sa, 15.08. 7:00 1015 + 0,4
Sa, 15.08. 6:50 1015 keine Meldung
Sa, 15.08. 6:40 1015 keine Meldung
Sa, 15.08. 6:30 1015 + 0,2
Sa, 15.08. 6:00 1015 - 0,1
Ortszeit Schneehöhe (cm)
Sa, 15.08. 2:00 -
Fr, 14.08. 20:00 -
Fr, 14.08. 14:00 -
Fr, 14.08. 8:00 -
Fr, 14.08. 2:00 -
Do, 13.08. 20:00 -
Do, 13.08. 14:00 -
Do, 13.08. 8:00 -
Ortszeit Schneehöhe (cm)
Sa, 15.08. 7:30 -
Sa, 15.08. 7:20 -
Sa, 15.08. 7:10 -
Sa, 15.08. 7:00 -
Sa, 15.08. 6:50 -
Sa, 15.08. 6:40 -
Sa, 15.08. 6:30 -
Sa, 15.08. 6:00 -
Link zu dieser Seite / Seite empfehlen

Das Wetter in ...